EUTELSAT 9B

Last updated on Fri Sep 19 2025 00:02:49 GMT+0000 (Coordinated Universal Time)

1 41310U 16005A 25261.15560720 .00000041 00000+0 00000+0 0 9996 2 41310 0.0402 61.7574 0002371 158.3154 202.2765 1.00269714 35380
UTC large
Height (km)
Speed (km/s)
/
Latitude / Longitude
Inclination (degrees)
Orbital Period (minutes)
Azimuth
Elevation
Range (km)
Doppler Factor

Next 0 passes for location: London (51.5072 / 0.1276)

Sorry there are no passes over London.